Terminal Aerodrome Forecast
Issued by NWS

Home | Current Version | Previous Version | Text Only | Print | Product List | Glossary On
Versions: 1 2 3 4 5 6 7 8 9 10 11 12 13 14 15 16 17 18 19 20
000
FTUS45 KABQ 190500
TAFSAF
TAF
KSAF 190535Z 1906/2006 36005KT P6SM FEW050 SCT110
     FM191000 36005KT P6SM VCFG FEW005 SCT100
     FM191600 34008KT P6SM FEW150
     FM192100 30010KT P6SM SCT150=

USA.gov is the U.S. government's official web portal to all federal, state and local government web resources and services.